Temp
30 30 30 29 29 30 29 29 29 30 30 31 33 33 32 31 32 32 32 32 31 30 28 28 28 28 28 27 26 26 27 25 25 25 26 26 25 25 25 25 26 26 25 25 24 25 24 24 24 24 24 24 24 25 25 25 25 25 25 26 26 27
31 31 31 30 30 29 29 29 29 30 29 29 28 28 28 29 31 31 31 31 32 31 30 30 29 28 28 27 27 28 27 26 26 25 26 26 26 25 25 25 25 25 24 25 24 24 24 24 24 24 24 24 24 24 24 25 24 24 24 25 25 27
30 30 30 30 29 30 30 30 32 32 31 32 32 32 30 29 28 28 27 27 27 28 28 27 26 26 24 25 25 25 25 25 25 24 24 24 24 23 24 24 24 24 24 24 24 24 24 24 24 24 23 23 24 24 24 24 24 24 24 24 24 25
30 30 29 29 29 29 30 29 28 28 29 28 27 27 28 28 28 28 27 26 27 27 26 26 25 24 24 24 24 24 25 24 24 25 24 24 24 24 23 23 23 23 22 23 23 23 23 23 23 23 23 23 24 24 25 25 24 23 23 24 24 24
31 31 32 32 32 32 32 31 31 31 30 29 28 29 28 28 28 26 26 26 26 25 25 24 25 24 24 25 24 24 24 24 24 24 24 24 24 24 24 23 22 23 22 22 23 22 22 23 22 23 23 23 22 23 23 24 23 23 23 23 23 24
32 33 33 33 33 33 33 33 32 32 30 29 28 28 28 26 27 27 27 27 27 25 24 25 25 24 24 24 24 24 24 24 24 24 23 23 23 23 23 22 22 22 22 22 21 21 21 22 22 22 22 22 22 22 23 23 23 23 23 23 23 24
33 34 35 34 34 34 33 32 31 29 29 27 27 28 27 27 26 27 26 26 27 25 25 25 24 24 24 24 24 24 24 24 23 23 23 23 23 23 22 22 22 22 21 23 21 21 21 21 21 22 22 22 22 22 22 23 23 23 23 23 24 25
34 35 35 35 33 33 31 30 29 29 29 28 28 29 27 28 26 26 27 25 27 26 24 25 23 24 24 24 23 24 24 23 23 22 23 22 21 22 22 21 21 21 20 20 20 20 21 21 21 21 21 21 22 22 22 23 23 23 23 23 24 24
34 34 34 32 31 31 30 30 29 29 29 29 28 29 30 29 27 27 27 26 26 26 25 25 24 24 23 23 23 23 23 22 21 21 21 21 20 20 20 20 20 20 20 20 20 20 21 21 21 21 21 21 21 22 22 22 22 22 23 23 23 23
32 31 31 30 31 30 30 30 30 30 30 30 29 29 29 30 28 27 27 26 26 25 26 24 24 23 23 23 22 22 21 21 20 20 20 19 20 20 20 19 19 19 19 20 19 20 20 20 20 20 20 21 21 21 21 21 21 21 21 22 22 22
31 31 31 32 31 30 30 30 29 29 30 31 30 29 29 29 28 27 27 25 25 26 25 24 23 23 22 22 21 20 20 20 19 18 18 17 17 19 18 18 18 17 17 18 18 18 19 18 19 20 20 20 21 21 21 21 20 20 20 20 20 21
31 31 32 32 30 30 29 29 29 30 30 30 30 29 30 27 27 27 26 25 25 25 24 23 22 22 21 20 19 18 17 16 16 16 15 16 15 15 15 15 15 15 15 15 15 15 16 16 17 19 23 24 22 21 21 21 20 20 20 19 19 19
31 31 31 31 30 30 30 30 30 30 30 31 30 30 29 27 27 26 25 26 24 23 22 21 20 18 18 18 16 13 14 16 13 12 13 12 12 12 13 13 14 13 13 13 13 13 14 15 16 20 22 24 25 23 21 21 20 20 20 19 18 18
29 29 30 30 30 29 30 30 30 29 30 31 30 31 28 26 26 26 24 24 22 22 21 19 18 15 15 14 13 12 11 11 10 10 10 9 10 10 10 11 12 11 12 12 12 11 12 12 16 19 21 23 24 24 22 21 20 19 19 19 19 19
29 29 29 29 29 29 30 31 30 30 31 30 31 28 25 25 25 24 23 21 21 19 18 16 13 12 11 11 10 10 9 8 9 7 7 7 7 8 9 11 9 10 10 10 9 9 10 10 15 18 21 22 23 23 23 20 20 18 18 18 18 18
28 28 29 29 29 30 31 30 31 32 32 30 25 26 25 24 22 22 21 19 18 16 15 13 10 11 10 10 8 9 7 7 6 6 6 6 8 8 7 6 7 8 8 8 8 8 9 9 13 18 20 21 22 23 23 20 19 18 17 17 17 16
27 26 26 27 28 28 28 28 29 28 27 26 26 24 23 22 22 20 19 17 15 13 12 13 10 9 9 8 7 6 6 5 5 7 6 5 7 6 5 5 5 5 5 5 6 6 6 8 14 18 19 20 21 22 22 18 17 16 15 16 16 16
28 28 28 28 28 28 28 29 28 26 27 21 24 21 21 20 20 19 16 14 12 11 12 9 7 7 7 8 6 5 6 6 4 3 4 3 4 3 3 4 2 4 3 4 4 4 4 7 14 16 18 20 21 22 18 16 14 14 14 14 16 16
28 29 27 26 27 26 27 25 24 24 21 20 19 18 17 18 17 16 15 13 11 10 10 11 7 6 6 5 5 3 4 5 3 3 2 1 3 4 2 2 2 2 3 3 3 3 4 4 9 15 18 19 20 19 15 15 14 14 13 14 15 16
25 25 26 23 22 23 22 21 22 21 19 17 15 16 16 16 17 14 12 11 9 10 9 9 5 5 3 2 2 2 5 3 2 1 1 2 2 2 1 1 1 1 1 2 1 2 3 4 9 15 16 18 18 18 15 14 13 12 13 13 15 16
25 24 22 22 23 20 19 19 19 20 18 16 15 15 15 16 14 11 11 10 9 8 7 4 4 4 2 1 2 0 1 1 -0 0 -0 -1 -2 0 0 1 0 0 -0 -0 2 6 6 4 6 12 14 16 18 17 15 15 13 12 13 13 14 15
23 21 21 22 25 18 16 17 19 18 18 15 14 15 16 15 12 11 9 9 7 6 3 3 2 2 -0 2 -0 -0 -0 -1 -2 -2 -1 -2 -2 -1 -1 -1 -1 -1 -1 0 1 1 2 2 3 6 14 16 18 19 16 15 13 12 12 13 13 13
26 27 26 26 22 16 16 18 18 18 16 15 15 16 16 12 10 8 8 7 4 3 2 1 -0 -2 -1 -1 -2 0 -1 -2 -0 -1 -4 -3 -2 -3 -2 -2 -2 -2 -1 -0 1 1 2 2 3 5 13 16 18 19 18 15 14 14 14 13 13 14
22 21 20 18 17 16 16 18 19 17 14 14 16 16 10 9 8 7 5 4 2 0 -2 -3 -3 -2 -3 -4 -4 -4 -3 -3 -3 -4 -5 -4 -4 -4 -3 -3 -3 -2 -2 -1 0 0 1 3 8 6 11 15 17 19 20 16 16 17 16 16 16 16
22 22 22 17 14 15 16 17 17 14 13 15 14 9 8 7 6 4 3 2 -1 -2 -4 -4 -4 -4 -5 -5 -4 -5 -6 -5 -6 -6 -6 -6 -5 -5 -5 -4 -4 -3 -3 -2 -1 -0 0 1 3 10 9 14 17 19 20 21 20 22 20 17 15 16
22 21 16 14 12 11 15 17 17 13 12 15 9 7 5 4 3 2 -0 -3 -4 -5 -5 -5 -6 -6 -7 -7 -7 -8 -7 -7 -7 -8 -7 -6 -6 -5 -5 -4 -4 -4 -4 -4 -2 -1 1 2 2 7 13 13 17 19 21 22 22 23 19 19 18 18
23 19 13 12 10 10 9 10 16 10 12 10 6 6 3 1 -1 -2 -4 -6 -6 -8 -8 -9 -9 -10 -9 -9 -8 -8 -7 -7 -9 -6 -8 -8 -6 -6 -6 -5 -5 -5 -5 -4 -3 -1 1 4 6 7 11 17 18 20 21 21 22 23 23 19 19 19
15 14 13 10 8 9 6 7 10 12 9 6 5 3 1 -2 -4 -6 -7 -10 -9 -10 -10 -8 -8 -8 -8 -8 -7 -8 -8 -8 -7 -7 -6 -7 -6 -6 -6 -6 -6 -6 -5 -4 -2 0 3 7 9 10 12 14 16 18 19 21 22 22 23 22 21 23
16 14 13 12 8 7 5 3 5 6 5 4 3 2 -2 -6 -5 -4 -7 -8 -9 -9 -10 -9 -9 -8 -8 -9 -8 -8 -8 -7 -8 -7 -6 -7 -7 -7 -7 -6 -6 -5 -4 -3 0 4 6 8 9 11 12 14 14 14 16 17 17 20 22 20 19 20
17 16 13 13 11 7 5 3 2 1 2 2 2 -3 -5 -4 -4 -5 -8 -11 -12 -9 -10 -10 -4 -4 -7 -8 -10 -8 -8 -8 -8 -7 -6 -7 -6 -7 -6 -6 -4 -3 -2 0 3 5 6 7 9 12 13 13 14 15 17 18 18 18 18 18 19 19
17 17 14 15 10 6 4 2 -0 -1 1 2 -3 -3 -4 -4 -5 -7 -12 -11 -12 -11 -7 -8 -9 -9 -9 -8 -11 -10 -8 -7 -7 -6 -4 -3 -3 -3 -3 -3 -1 1 3 4 4 5 7 10 11 13 18 18 21 19 18 17 18 18 18 20 24 21
16 15 13 13 8 5 4 2 -0 -2 1 -2 -4 -4 -4 -5 -7 -11 -10 -10 -13 -12 -10 -9 -10 -12 -9 -9 -9 -9 -8 -1 6 4 1 1 8 12 14 13 7 7 8 9 13 14 12 11 14 19 21 21 21 22 22 22 23 23 22 22 22 18
12 11 10 10 5 4 4 2 -1 -2 -3 -3 -3 -3 -5 -6 -6 -9 -8 -10 -10 -8 -9 -10 -10 -9 -10 -10 -9 -10 -8 -7 -4 5 10 11 11 12 14 15 17 18 18 15 13 16 19 19 19 19 20 20 20 21 22 22 22 22 21 20 15 11
8 10 11 6 3 3 1 0 -3 -3 -3 -3 -4 -4 -6 -6 -5 -6 -7 -8 -8 -5 -5 -7 -8 -8 -8 -8 -8 -8 -9 -9 -8 -6 3 8 9 11 12 13 15 16 16 17 16 14 12 15 18 18 19 19 20 21 20 20 19 18 17 16 15 5
11 7 3 2 1 0 0 -0 -3 -5 -4 -5 -5 -5 -7 -8 -7 -6 -8 -9 -8 -7 -5 -6 -7 -7 -8 -9 -9 -9 -10 -9 -9 -9 -8 -3 5 8 9 10 12 13 14 14 15 15 15 15 16 17 18 19 20 18 17 17 16 14 14 12 5 -1
5 3 1 0 -0 -0 -1 -1 -4 -5 -5 -7 -7 -6 -5 -7 -7 -7 -8 -8 -7 -8 -8 -8 -7 -7 -7 -7 -8 -9 -9 -9 -9 -9 -8 -8 -7 -4 1 5 7 9 10 11 13 14 14 15 16 17 18 19 17 16 16 14 8 11 11 8 -0 -2
2 -0 -0 -0 -2 -2 -3 -2 -5 -6 -7 -7 -8 -7 -8 -8 -7 -10 -6 -4 -4 -8 -7 -7 -5 -6 -7 -8 -8 -9 -7 -8 -7 -7 -7 -8 -8 -8 -8 -7 -4 2 7 7 9 11 13 14 15 16 17 17 15 14 14 10 -1 -3 -2 -2 -5 -3
-0 -2 -2 -2 -3 -4 -3 -3 -6 -7 -9 -8 -10 -8 -8 -8 -7 -7 -7 -7 -5 -5 -5 -6 -7 -6 -7 -8 -9 -8 -6 -7 -5 -7 -8 -8 -7 -8 -9 -8 -6 -4 2 8 9 10 11 13 14 15 16 14 13 13 10 -3 -6 -5 -5 -4 -3 -4
MSLP
1025.88 1026.20 1026.36 1026.72 1026.92 1027.04 1027.16 1027.32 1027.44 1027.48 1027.56 1027.64 1027.64 1027.56 1027.72 1027.76 1027.96 1028.12 1028.36 1028.40 1028.56 1028.80 1028.88 1028.92 1029.08 1029.24 1029.36 1029.52 1029.64 1029.72 1029.72 1029.88 1030.12 1030.20 1030.32 1030.40 1030.44 1030.36 1030.28 1030.20 1030.12 1030.08 1030.12 1030.12 1030.12 1029.96 1029.88 1029.80 1029.68 1029.56 1029.44 1029.28 1029.16 1029.00 1028.92 1028.76 1028.60 1028.44 1028.28 1028.12 1027.96 1027.80
1025.88 1026.04 1026.16 1026.44 1026.68 1026.88 1027.04 1027.12 1027.24 1027.24 1027.48 1027.56 1027.72 1027.88 1027.92 1027.92 1027.92 1028.08 1028.24 1028.48 1028.56 1028.76 1028.88 1029.00 1029.08 1029.16 1029.24 1029.36 1029.44 1029.52 1029.68 1029.84 1029.92 1030.00 1030.00 1030.08 1030.20 1030.20 1030.24 1030.28 1030.28 1030.24 1030.24 1030.24 1030.16 1030.04 1029.92 1029.84 1029.72 1029.56 1029.44 1029.28 1029.20 1029.08 1028.92 1028.76 1028.64 1028.52 1028.36 1028.12 1028.00 1027.88
1026.00 1026.12 1026.28 1026.40 1026.64 1026.76 1026.92 1027.00 1027.04 1027.20 1027.36 1027.36 1027.40 1027.36 1027.64 1027.76 1028.00 1028.08 1028.28 1028.44 1028.52 1028.60 1028.72 1028.92 1029.08 1029.24 1029.44 1029.56 1029.72 1029.76 1029.88 1029.96 1030.00 1030.08 1030.24 1030.28 1030.28 1030.44 1030.40 1030.40 1030.36 1030.32 1030.32 1030.20 1030.08 1029.96 1029.84 1029.72 1029.60 1029.52 1029.40 1029.32 1029.20 1029.08 1028.96 1028.80 1028.64 1028.52 1028.36 1028.16 1027.92 1027.84
1026.00 1026.16 1026.40 1026.44 1026.44 1026.60 1026.68 1026.88 1027.12 1027.16 1027.08 1027.24 1027.40 1027.52 1027.60 1027.76 1027.96 1028.00 1028.28 1028.44 1028.60 1028.72 1029.00 1029.16 1029.36 1029.48 1029.60 1029.56 1029.68 1029.72 1029.88 1030.00 1030.12 1030.28 1030.40 1030.44 1030.52 1030.56 1030.52 1030.48 1030.48 1030.40 1030.32 1030.20 1030.08 1029.96 1029.88 1029.80 1029.64 1029.52 1029.40 1029.28 1029.12 1029.00 1028.88 1028.76 1028.64 1028.52 1028.36 1028.20 1028.00 1027.80
1025.88 1026.04 1026.04 1026.12 1026.20 1026.36 1026.48 1026.84 1026.84 1026.88 1027.08 1027.28 1027.40 1027.32 1027.56 1027.64 1027.88 1028.16 1028.36 1028.48 1028.64 1028.80 1029.04 1029.16 1029.24 1029.44 1029.56 1029.68 1029.88 1030.00 1030.12 1030.28 1030.36 1030.52 1030.52 1030.56 1030.56 1030.56 1030.48 1030.44 1030.36 1030.32 1030.24 1030.20 1030.08 1030.00 1029.96 1029.84 1029.72 1029.60 1029.48 1029.36 1029.24 1029.04 1028.88 1028.80 1028.68 1028.56 1028.36 1028.16 1027.96 1027.84
1025.80 1025.92 1025.80 1025.96 1026.20 1026.24 1026.32 1026.52 1026.64 1026.80 1027.04 1027.20 1027.40 1027.28 1027.52 1027.84 1028.00 1028.24 1028.36 1028.40 1028.56 1028.88 1029.04 1029.16 1029.44 1029.60 1029.76 1029.84 1030.08 1030.12 1030.24 1030.36 1030.36 1030.44 1030.40 1030.40 1030.40 1030.36 1030.32 1030.32 1030.28 1030.24 1030.20 1030.16 1030.08 1030.04 1029.96 1029.84 1029.72 1029.60 1029.48 1029.40 1029.24 1029.08 1028.88 1028.72 1028.64 1028.48 1028.36 1028.20 1027.96 1027.72
1025.44 1025.28 1025.32 1025.64 1025.92 1026.12 1026.16 1026.28 1026.48 1026.68 1026.88 1027.24 1027.20 1027.32 1027.60 1027.76 1028.12 1028.16 1028.28 1028.40 1028.60 1028.92 1029.12 1029.24 1029.48 1029.60 1029.76 1029.92 1030.08 1030.08 1030.16 1030.20 1030.24 1030.28 1030.32 1030.36 1030.36 1030.28 1030.32 1030.28 1030.28 1030.28 1030.20 1030.20 1030.12 1030.04 1029.96 1029.84 1029.72 1029.56 1029.44 1029.32 1029.16 1029.04 1028.84 1028.68 1028.52 1028.36 1028.16 1027.96 1027.80 1027.56
1024.80 1025.00 1025.08 1025.32 1025.64 1025.72 1025.92 1026.24 1026.44 1026.68 1026.84 1027.00 1027.20 1027.24 1027.64 1027.72 1028.08 1028.08 1028.24 1028.60 1028.68 1028.92 1029.08 1029.20 1029.40 1029.60 1029.72 1029.84 1029.88 1029.96 1030.04 1030.12 1030.20 1030.28 1030.32 1030.36 1030.36 1030.32 1030.28 1030.32 1030.32 1030.24 1030.24 1030.20 1030.12 1030.04 1029.92 1029.80 1029.64 1029.52 1029.36 1029.20 1029.00 1028.88 1028.72 1028.52 1028.32 1028.12 1027.92 1027.68 1027.52 1027.36
1024.32 1024.36 1024.76 1025.12 1025.40 1025.56 1025.76 1026.00 1026.28 1026.52 1026.72 1026.80 1027.20 1027.36 1027.40 1027.64 1027.96 1028.16 1028.32 1028.60 1028.68 1028.80 1028.92 1029.20 1029.36 1029.52 1029.64 1029.72 1029.80 1029.92 1030.08 1030.16 1030.24 1030.28 1030.32 1030.28 1030.28 1030.24 1030.24 1030.28 1030.24 1030.24 1030.20 1030.16 1030.04 1029.96 1029.88 1029.76 1029.64 1029.48 1029.28 1029.12 1028.92 1028.72 1028.48 1028.28 1028.08 1027.88 1027.68 1027.44 1027.32 1027.16
1023.92 1024.36 1024.64 1025.04 1025.16 1025.44 1025.68 1025.88 1026.00 1026.20 1026.36 1026.44 1026.88 1027.24 1027.40 1027.60 1027.84 1028.08 1028.28 1028.52 1028.64 1028.72 1028.84 1029.16 1029.32 1029.52 1029.60 1029.72 1029.84 1029.96 1030.04 1030.12 1030.12 1030.20 1030.24 1030.24 1030.24 1030.24 1030.28 1030.24 1030.24 1030.20 1030.20 1030.08 1030.04 1030.00 1029.92 1029.76 1029.64 1029.48 1029.28 1029.04 1028.80 1028.52 1028.32 1028.16 1027.96 1027.68 1027.48 1027.28 1027.12 1027.00
1023.56 1024.00 1024.40 1024.68 1025.08 1025.28 1025.40 1025.72 1026.00 1026.24 1026.32 1026.28 1026.44 1026.88 1027.00 1027.24 1027.60 1027.84 1028.08 1028.40 1028.56 1028.64 1028.84 1029.08 1029.40 1029.52 1029.64 1029.72 1029.72 1029.76 1029.88 1030.00 1030.12 1030.20 1030.28 1030.28 1030.32 1030.36 1030.36 1030.36 1030.32 1030.24 1030.20 1030.16 1030.12 1030.08 1029.96 1029.88 1029.72 1029.56 1029.28 1028.92 1028.56 1028.44 1028.20 1028.04 1027.88 1027.72 1027.40 1027.04 1026.84 1026.72
1023.48 1023.76 1024.00 1024.24 1024.56 1024.80 1025.16 1025.48 1025.68 1025.76 1025.84 1026.00 1026.28 1026.48 1026.64 1027.16 1027.36 1027.56 1027.92 1028.24 1028.36 1028.56 1028.84 1029.08 1029.28 1029.40 1029.48 1029.44 1029.48 1029.72 1029.88 1030.00 1030.12 1030.24 1030.28 1030.36 1030.44 1030.48 1030.44 1030.44 1030.40 1030.32 1030.28 1030.24 1030.20 1030.12 1030.08 1029.96 1029.88 1029.64 1029.20 1028.84 1028.56 1028.24 1028.04 1027.88 1027.68 1027.52 1027.28 1027.00 1026.72 1026.48
1023.24 1023.40 1023.56 1023.68 1024.04 1024.28 1024.64 1024.96 1025.16 1025.44 1025.64 1025.72 1025.92 1026.08 1026.36 1026.84 1027.08 1027.44 1027.68 1027.88 1028.24 1028.44 1028.76 1029.04 1029.16 1029.24 1029.28 1029.52 1029.68 1029.88 1029.96 1030.08 1030.24 1030.32 1030.40 1030.52 1030.56 1030.52 1030.52 1030.48 1030.40 1030.40 1030.36 1030.32 1030.24 1030.20 1030.08 1030.04 1029.92 1029.48 1029.08 1028.76 1028.44 1028.24 1027.96 1027.72 1027.44 1027.32 1027.20 1027.00 1026.76 1026.44
1023.12 1023.16 1023.16 1023.44 1023.76 1024.16 1024.44 1024.68 1024.92 1025.20 1025.24 1025.32 1025.56 1025.72 1026.28 1026.68 1026.88 1027.12 1027.44 1027.72 1028.16 1028.40 1028.72 1028.84 1029.08 1029.24 1029.48 1029.64 1029.72 1030.00 1030.16 1030.28 1030.28 1030.36 1030.48 1030.56 1030.56 1030.60 1030.56 1030.52 1030.48 1030.52 1030.40 1030.32 1030.28 1030.20 1030.12 1030.04 1029.80 1029.36 1028.96 1028.56 1028.28 1028.04 1027.84 1027.56 1027.40 1027.16 1027.04 1026.84 1026.64 1026.40
1022.64 1022.76 1023.04 1023.40 1023.64 1023.92 1024.04 1024.16 1024.56 1024.68 1024.68 1025.00 1025.04 1025.60 1026.08 1026.36 1026.68 1027.00 1027.32 1027.80 1028.08 1028.44 1028.68 1028.84 1028.96 1029.20 1029.44 1029.64 1029.92 1030.08 1030.16 1030.12 1030.08 1030.24 1030.40 1030.48 1030.64 1030.64 1030.60 1030.60 1030.60 1030.48 1030.44 1030.36 1030.28 1030.16 1030.08 1030.00 1029.72 1029.24 1028.72 1028.36 1028.08 1027.84 1027.64 1027.40 1027.28 1027.12 1026.88 1026.72 1026.60 1026.40
1022.88 1022.96 1023.00 1023.08 1023.32 1023.48 1023.68 1024.12 1024.00 1023.88 1024.16 1024.52 1025.08 1025.48 1025.80 1026.16 1026.64 1026.92 1027.24 1027.80 1028.16 1028.44 1028.68 1028.80 1028.96 1029.04 1029.44 1029.80 1029.92 1030.04 1029.96 1029.96 1030.12 1030.40 1030.52 1030.60 1030.60 1030.56 1030.60 1030.56 1030.52 1030.48 1030.44 1030.40 1030.32 1030.16 1030.04 1029.96 1029.64 1029.00 1028.52 1028.16 1027.88 1027.60 1027.36 1027.16 1027.08 1027.00 1026.88 1026.76 1026.64 1026.44
1022.64 1022.80 1022.96 1023.04 1023.16 1023.48 1023.80 1023.96 1024.08 1024.16 1024.40 1024.60 1024.88 1025.32 1025.64 1026.08 1026.40 1026.88 1027.32 1027.68 1028.24 1028.56 1028.64 1028.80 1028.96 1029.04 1029.52 1029.80 1029.96 1030.00 1029.96 1030.12 1030.36 1030.40 1030.52 1030.68 1030.68 1030.68 1030.60 1030.56 1030.52 1030.48 1030.48 1030.44 1030.32 1030.20 1029.96 1029.84 1029.36 1028.76 1028.36 1028.04 1027.68 1027.32 1027.08 1027.08 1027.12 1027.00 1026.84 1026.64 1026.44 1026.24
1021.24 1021.56 1021.64 1022.64 1023.08 1023.24 1023.56 1023.40 1023.80 1024.16 1024.20 1024.88 1024.84 1025.32 1025.64 1026.00 1026.32 1026.80 1027.52 1027.60 1028.12 1028.32 1028.64 1028.80 1028.92 1029.20 1029.56 1029.80 1029.96 1029.88 1029.92 1030.28 1030.36 1030.44 1030.64 1030.76 1030.80 1030.76 1030.72 1030.72 1030.68 1030.60 1030.48 1030.44 1030.32 1030.12 1029.80 1029.64 1029.24 1028.72 1028.28 1027.84 1027.48 1027.08 1027.08 1027.16 1027.04 1026.84 1026.56 1026.32 1026.12 1025.92
1021.04 1021.20 1022.16 1022.48 1022.72 1023.08 1023.12 1023.52 1023.88 1024.00 1024.40 1024.76 1025.12 1025.48 1025.88 1026.24 1026.32 1026.76 1027.24 1027.48 1028.08 1028.40 1028.76 1028.96 1029.04 1029.24 1029.56 1029.92 1029.88 1029.88 1030.16 1030.32 1030.44 1030.64 1030.76 1030.80 1030.84 1030.80 1030.76 1030.76 1030.68 1030.60 1030.48 1030.32 1030.24 1030.08 1029.64 1029.48 1029.20 1028.60 1028.04 1027.64 1027.32 1027.08 1027.00 1026.84 1026.68 1026.48 1026.28 1025.96 1025.72 1025.52
1022.08 1022.52 1022.28 1022.24 1022.44 1022.68 1023.16 1023.60 1023.80 1024.08 1024.32 1024.68 1025.36 1025.64 1025.96 1026.16 1026.16 1026.92 1027.24 1027.48 1028.16 1028.56 1029.00 1029.20 1029.36 1029.40 1029.72 1030.04 1029.84 1030.08 1030.40 1030.52 1030.60 1030.68 1030.76 1030.84 1030.76 1030.72 1030.68 1030.64 1030.52 1030.40 1030.36 1030.20 1030.04 1030.00 1029.56 1029.00 1028.84 1028.36 1027.88 1027.56 1027.28 1026.96 1026.72 1026.56 1026.40 1026.12 1025.88 1025.44 1025.20 1025.08
1021.48 1021.80 1022.52 1022.36 1021.60 1022.60 1023.40 1023.52 1023.76 1023.88 1024.00 1024.76 1025.32 1025.72 1025.72 1025.88 1026.36 1026.92 1027.04 1027.72 1028.48 1028.84 1029.16 1029.36 1029.60 1029.72 1029.92 1029.92 1030.00 1030.20 1030.28 1030.36 1030.48 1030.60 1030.72 1030.80 1030.76 1030.68 1030.60 1030.52 1030.36 1030.16 1030.08 1030.04 1029.84 1029.56 1029.28 1028.84 1028.60 1028.36 1027.84 1027.40 1027.00 1026.72 1026.40 1026.16 1025.92 1025.56 1025.28 1025.04 1024.64 1024.48
1021.84 1021.68 1021.48 1021.40 1020.96 1022.92 1023.40 1023.60 1023.60 1023.52 1023.84 1024.80 1025.56 1025.48 1025.32 1025.60 1026.28 1027.16 1027.76 1028.28 1028.68 1029.00 1029.24 1029.52 1029.68 1029.84 1029.84 1029.76 1030.00 1030.20 1030.28 1030.36 1030.44 1030.52 1030.56 1030.72 1030.72 1030.60 1030.56 1030.48 1030.32 1030.04 1029.72 1029.68 1029.56 1029.40 1029.28 1028.92 1028.40 1028.32 1027.60 1027.08 1026.64 1026.28 1026.04 1025.72 1025.52 1025.16 1024.84 1024.60 1024.24 1023.76
1020.96 1020.28 1020.28 1020.48 1021.64 1022.96 1023.44 1023.52 1023.36 1023.32 1024.04 1024.80 1025.12 1024.60 1024.96 1026.16 1027.20 1027.56 1027.92 1028.40 1028.72 1029.00 1029.28 1029.60 1029.72 1029.60 1029.72 1029.84 1029.92 1030.16 1030.28 1030.32 1030.36 1030.52 1030.64 1030.68 1030.68 1030.68 1030.52 1030.44 1030.24 1029.96 1029.52 1029.40 1029.24 1029.12 1028.92 1028.80 1028.24 1027.76 1027.36 1026.68 1026.24 1025.88 1025.64 1025.36 1025.12 1024.80 1024.36 1023.80 1023.36 1023.00
1021.40 1021.44 1021.64 1022.16 1022.56 1023.00 1023.32 1023.28 1022.76 1023.24 1024.20 1024.72 1024.00 1024.44 1026.20 1027.00 1027.32 1027.76 1028.08 1028.32 1028.60 1029.00 1029.32 1029.40 1029.56 1029.60 1029.60 1029.76 1029.88 1029.92 1030.08 1030.28 1030.44 1030.60 1030.68 1030.72 1030.72 1030.56 1030.40 1030.28 1030.12 1029.80 1029.36 1029.08 1029.00 1028.84 1028.60 1028.36 1028.04 1027.40 1026.92 1026.48 1025.92 1025.52 1025.16 1024.88 1024.52 1024.20 1023.68 1022.84 1022.36 1022.12
1021.08 1020.92 1020.76 1022.20 1023.04 1023.48 1023.56 1023.20 1022.56 1023.32 1024.32 1023.64 1024.20 1026.04 1026.88 1027.16 1027.52 1027.80 1028.08 1028.36 1028.56 1028.84 1029.04 1029.20 1029.28 1029.36 1029.64 1029.68 1029.88 1029.92 1030.00 1030.32 1030.44 1030.56 1030.64 1030.64 1030.60 1030.48 1030.24 1030.08 1029.96 1029.68 1029.20 1028.80 1028.60 1028.52 1028.28 1028.08 1027.76 1027.28 1026.64 1026.00 1025.52 1025.00 1024.64 1024.28 1023.84 1023.36 1023.08 1022.60 1021.96 1021.64
1020.76 1020.88 1021.80 1022.76 1023.40 1023.64 1023.64 1023.04 1022.52 1023.36 1023.64 1023.60 1025.88 1026.72 1027.08 1027.32 1027.60 1027.92 1028.04 1028.28 1028.48 1028.80 1029.00 1029.20 1029.32 1029.52 1029.72 1029.76 1029.88 1029.96 1030.08 1030.28 1030.44 1030.52 1030.56 1030.60 1030.52 1030.36 1030.08 1029.88 1029.84 1029.64 1029.32 1028.84 1028.20 1028.04 1027.92 1027.60 1027.28 1026.76 1026.20 1025.56 1024.96 1024.48 1024.04 1023.64 1023.24 1022.92 1022.56 1022.12 1021.48 1020.92
1019.88 1020.80 1021.88 1023.04 1023.44 1023.76 1023.68 1023.56 1022.72 1023.36 1023.12 1024.84 1026.32 1026.52 1026.84 1027.28 1027.64 1027.76 1027.88 1028.12 1028.52 1028.72 1029.08 1029.28 1029.36 1029.52 1029.64 1029.76 1029.92 1029.88 1030.12 1030.16 1030.28 1030.24 1030.32 1030.40 1030.40 1030.32 1030.12 1029.80 1029.84 1029.68 1029.32 1028.92 1028.36 1027.76 1027.36 1026.96 1026.44 1026.00 1025.52 1025.00 1024.44 1023.96 1023.56 1023.20 1022.80 1022.32 1021.92 1021.44 1020.88 1020.60
1021.08 1021.36 1021.20 1022.64 1023.68 1023.76 1023.88 1023.72 1023.44 1022.68 1023.64 1025.68 1026.32 1026.60 1026.88 1027.24 1027.44 1027.56 1027.76 1028.24 1028.52 1028.72 1029.08 1029.04 1029.24 1029.48 1029.64 1029.76 1030.00 1030.08 1030.16 1030.12 1030.20 1030.24 1030.24 1030.32 1030.24 1030.20 1030.08 1029.80 1029.72 1029.56 1029.28 1028.84 1028.20 1027.52 1026.72 1026.12 1025.68 1025.20 1024.80 1024.40 1024.00 1023.64 1023.24 1022.72 1022.24 1021.80 1021.36 1020.96 1020.32 1019.76
1020.80 1020.88 1021.16 1021.12 1023.16 1023.72 1023.88 1023.76 1023.92 1023.92 1024.80 1025.72 1026.32 1026.64 1026.96 1027.16 1027.32 1027.44 1027.92 1028.04 1028.44 1028.84 1029.12 1028.96 1028.96 1029.16 1029.48 1029.68 1029.84 1029.96 1030.00 1030.08 1030.16 1030.20 1030.16 1030.16 1030.04 1029.96 1029.92 1029.72 1029.56 1029.28 1028.92 1028.40 1027.60 1026.76 1026.04 1025.52 1025.16 1024.72 1024.16 1023.80 1023.52 1023.08 1022.60 1022.12 1021.60 1021.08 1020.60 1020.24 1019.88 1019.40
1020.32 1020.40 1021.08 1021.08 1022.60 1023.64 1023.80 1023.84 1024.00 1024.72 1025.32 1026.00 1026.32 1026.68 1026.92 1027.04 1027.28 1027.24 1027.56 1028.00 1028.48 1028.60 1028.88 1028.88 1029.08 1029.24 1029.36 1029.48 1029.64 1029.64 1029.76 1029.84 1029.96 1029.92 1029.80 1029.76 1029.68 1029.64 1029.40 1029.32 1029.04 1028.76 1028.32 1027.72 1026.92 1026.28 1025.60 1025.28 1024.72 1024.12 1023.72 1023.36 1023.00 1022.32 1021.84 1021.36 1020.92 1020.52 1020.24 1019.76 1019.24 1018.68
1019.96 1020.00 1020.44 1020.80 1022.40 1023.48 1023.76 1023.92 1024.44 1025.04 1025.28 1025.80 1026.20 1026.48 1026.52 1026.80 1027.28 1027.60 1027.84 1028.24 1028.56 1028.48 1028.84 1028.96 1029.08 1029.20 1029.32 1029.40 1029.56 1029.60 1029.60 1029.56 1029.56 1029.48 1029.28 1029.20 1029.36 1029.28 1029.04 1028.68 1028.20 1027.88 1027.40 1026.92 1026.40 1025.92 1024.92 1024.20 1023.80 1023.56 1023.28 1022.76 1022.28 1021.88 1021.40 1020.96 1020.64 1020.20 1019.64 1019.20 1018.60 1018.04
1019.68 1019.92 1020.36 1021.04 1022.44 1023.32 1023.68 1024.08 1024.68 1025.20 1025.44 1025.76 1026.08 1026.36 1026.24 1026.72 1027.24 1027.48 1027.60 1028.12 1028.24 1028.40 1028.60 1028.72 1028.88 1029.08 1029.24 1029.28 1029.28 1029.28 1029.28 1029.20 1028.80 1028.52 1028.40 1028.04 1027.92 1027.52 1027.12 1026.92 1026.60 1026.36 1026.20 1025.52 1024.72 1024.56 1024.08 1023.64 1023.28 1022.96 1022.68 1022.40 1022.00 1021.64 1021.28 1020.80 1020.20 1019.64 1019.24 1018.80 1018.68 1018.76
1020.04 1020.32 1020.56 1021.28 1022.56 1023.24 1023.60 1023.96 1024.72 1025.08 1025.52 1025.72 1026.08 1026.24 1026.36 1026.80 1026.88 1027.16 1027.44 1027.88 1027.96 1028.20 1028.32 1028.52 1028.64 1028.84 1029.00 1029.08 1029.12 1029.12 1028.96 1028.84 1028.72 1028.28 1027.64 1027.32 1027.08 1026.84 1026.52 1026.04 1025.60 1025.20 1024.92 1024.80 1024.28 1023.92 1023.84 1023.52 1023.20 1022.96 1022.60 1022.20 1021.84 1021.40 1020.84 1020.40 1020.08 1019.76 1019.52 1019.40 1019.20 1019.08
1020.28 1020.12 1019.92 1021.52 1022.52 1023.00 1023.52 1023.84 1024.60 1024.84 1025.28 1025.60 1025.92 1026.24 1026.44 1026.64 1026.56 1026.40 1026.92 1027.52 1027.76 1028.00 1028.16 1028.32 1028.48 1028.60 1028.68 1028.76 1028.84 1028.80 1028.84 1028.76 1028.40 1028.00 1027.84 1027.28 1026.92 1026.76 1026.36 1025.96 1025.48 1025.12 1024.84 1024.44 1024.20 1024.04 1023.84 1023.68 1023.28 1022.84 1022.44 1022.04 1021.48 1021.04 1020.88 1020.68 1020.36 1020.24 1020.16 1019.84 1019.80 1020.04
1019.64 1020.40 1021.16 1021.96 1022.64 1023.08 1023.48 1023.56 1024.24 1024.84 1025.12 1025.44 1025.76 1026.08 1026.20 1026.48 1026.52 1026.56 1026.92 1027.28 1027.52 1027.68 1027.88 1028.04 1028.20 1028.28 1028.40 1028.40 1028.44 1028.52 1028.56 1028.48 1028.40 1027.84 1027.36 1027.28 1027.16 1026.68 1026.36 1025.92 1025.52 1025.20 1024.88 1024.68 1024.52 1024.24 1023.88 1023.40 1023.08 1022.72 1022.28 1021.72 1021.36 1021.40 1021.28 1020.96 1020.92 1020.88 1020.56 1020.40 1020.64 1020.80
1020.28 1020.84 1021.48 1022.16 1022.52 1022.84 1023.28 1023.32 1024.12 1024.60 1024.84 1025.24 1025.56 1025.80 1025.88 1026.16 1026.36 1026.52 1026.72 1026.96 1027.16 1027.36 1027.56 1027.72 1027.84 1027.92 1028.04 1028.16 1028.20 1028.28 1028.32 1028.32 1028.16 1028.04 1027.88 1027.36 1026.96 1026.68 1026.12 1025.80 1025.80 1025.64 1025.32 1025.12 1024.68 1024.16 1023.76 1023.44 1023.04 1022.60 1022.00 1021.60 1021.68 1021.64 1021.44 1021.32 1021.60 1021.36 1021.04 1020.96 1021.08 1020.92
1020.68 1021.24 1021.88 1022.28 1022.72 1022.92 1023.04 1023.00 1024.00 1024.60 1024.88 1025.12 1025.40 1025.60 1025.84 1026.08 1026.32 1026.60 1026.68 1026.72 1026.88 1027.04 1027.16 1027.32 1027.40 1027.48 1027.64 1027.80 1027.88 1027.96 1028.00 1027.92 1027.84 1027.76 1027.56 1027.44 1027.28 1027.16 1027.12 1026.72 1025.88 1025.52 1025.60 1025.16 1024.68 1024.16 1023.72 1023.36 1022.88 1022.40 1021.92 1021.80 1021.92 1021.80 1021.64 1021.96 1022.20 1021.68 1021.28 1021.12 1021.12 1020.96
1021.04 1021.60 1022.40 1022.56 1022.72 1022.80 1022.88 1023.08 1024.24 1024.68 1024.88 1025.08 1025.32 1025.48 1025.68 1025.96 1026.16 1026.36 1026.52 1026.64 1026.68 1026.76 1026.88 1026.96 1027.08 1027.20 1027.28 1027.40 1027.48 1027.60 1027.60 1027.56 1027.48 1027.28 1027.24 1027.28 1027.24 1027.24 1027.04 1026.72 1026.48 1026.00 1025.36 1024.96 1024.52 1024.20 1023.80 1023.28 1022.80 1022.32 1022.00 1022.08 1022.12 1021.96 1022.08 1022.64 1022.40 1022.08 1021.68 1021.28 1020.88 1020.72
Wind_Speed
6 6 6 5 4 4 4 4 3 3 3 3 4 6 5 5 5 5 5 5 5 5 5 5 5 5 5 4 4 4 5 4 3 3 1 1 1 3 4 4 6 6 6 5 5 5 4 4 4 4 4 4 5 4 5 5 4 5 6 5 5 5
7 7 7 6 6 5 4 4 3 4 3 4 4 4 4 5 6 5 6 4 5 5 4 4 4 4 5 4 5 6 5 4 4 4 5 5 4 5 4 5 5 5 5 5 4 4 4 4 4 4 4 5 5 6 7 6 5 6 6 7 4 5
6 6 5 5 4 4 4 4 4 4 3 4 4 7 5 5 4 5 4 5 4 5 5 4 4 4 3 4 3 4 3 3 3 3 3 3 4 3 4 4 4 4 4 5 5 5 6 6 6 5 4 5 5 5 5 6 6 7 7 7 8 5
5 5 4 4 4 5 5 4 3 4 4 4 4 4 5 5 4 5 4 4 4 5 4 3 2 3 2 3 3 3 3 2 2 1 2 2 2 1 3 3 3 3 4 4 4 5 5 5 5 6 5 6 7 6 5 6 7 7 8 6 8 8
5 6 7 7 7 6 6 5 5 5 4 4 3 5 4 4 5 4 4 4 4 4 3 3 2 2 2 2 1 1 1 0 0 1 0 0 1 1 1 3 3 3 3 3 4 4 4 4 4 4 4 5 5 7 7 6 6 7 8 9 9 8
5 7 8 9 8 7 7 6 5 4 4 4 3 4 4 4 4 4 4 4 4 3 3 3 1 2 1 2 2 1 1 0 0 0 1 1 2 2 3 3 3 3 3 3 3 3 3 4 4 4 4 4 5 6 7 7 6 7 7 7 9 9
8 10 9 8 7 6 6 7 6 5 4 4 4 4 4 4 4 4 4 4 4 3 3 4 3 3 3 2 2 1 1 1 1 1 1 1 2 2 2 2 2 2 3 3 3 3 3 4 4 4 4 4 4 5 6 6 6 7 8 8 8 8
8 8 8 8 7 8 7 6 6 5 5 6 5 6 4 5 4 4 4 4 5 4 4 4 3 4 3 3 2 1 1 1 1 1 1 1 2 1 1 2 2 3 3 3 3 3 3 3 4 4 5 5 4 5 6 6 7 7 8 8 8 8
11 10 8 7 7 7 7 7 7 6 6 6 6 6 7 6 5 5 5 5 5 5 5 4 5 4 3 3 2 2 2 2 2 2 2 2 3 3 4 3 3 3 3 4 3 4 4 5 4 5 4 5 5 6 7 7 7 8 8 8 8 9
8 8 8 8 9 7 7 7 8 8 8 9 7 7 6 6 6 6 6 5 5 5 5 5 4 4 3 3 3 3 2 2 2 3 2 2 4 4 4 5 5 4 3 4 4 4 4 5 4 4 5 6 6 7 7 7 9 9 10 10 10 9
9 9 9 9 7 8 9 7 6 6 6 7 7 7 8 7 7 7 7 6 6 6 5 5 4 3 3 3 3 2 2 2 2 2 3 2 3 3 3 4 4 5 4 4 4 4 4 5 5 4 6 7 7 7 8 8 9 10 11 11 10 9
7 8 9 9 10 10 8 8 8 9 9 9 7 7 8 6 7 7 7 7 7 6 5 5 4 4 3 3 3 3 2 2 2 2 2 2 2 2 2 3 3 3 4 5 5 4 4 4 4 7 14 13 9 9 8 9 8 8 9 9 10 9
8 8 9 10 10 11 10 10 9 8 8 8 9 9 8 7 7 7 7 8 6 6 5 5 4 3 3 2 3 1 1 2 1 1 1 1 2 2 3 3 4 3 4 4 5 5 5 4 5 13 14 15 17 12 11 11 11 11 11 10 11 11
7 8 9 9 9 8 8 8 8 8 10 10 10 9 6 7 7 8 7 6 6 6 6 4 4 3 3 2 2 1 0 0 1 1 1 1 2 3 2 3 3 4 4 4 4 5 5 5 9 15 15 16 16 15 11 11 11 11 10 11 12 12
9 9 8 6 8 8 9 9 8 10 10 9 11 5 6 7 7 7 6 6 7 6 5 4 4 3 2 1 1 1 1 2 3 3 3 3 3 2 3 4 5 4 4 5 6 6 6 6 11 15 17 17 17 17 15 10 10 11 11 11 12 12
5 6 7 7 7 8 7 6 9 11 9 7 4 6 6 6 6 7 7 6 6 5 4 4 3 2 1 1 1 1 2 3 3 2 2 3 3 3 3 3 4 4 5 5 7 7 7 7 11 17 18 17 18 17 16 10 11 10 11 12 12 11
5 5 5 6 7 5 4 5 6 5 3 5 6 5 6 6 7 6 7 7 5 4 4 4 3 2 1 1 1 2 2 3 2 3 3 3 4 5 5 6 6 5 4 5 6 7 8 7 15 17 18 18 18 19 16 9 10 10 11 11 11 12
7 7 7 4 4 5 5 8 5 5 6 3 5 5 5 6 6 7 6 6 5 4 4 3 2 1 1 1 1 2 2 2 2 3 3 3 3 3 3 3 3 5 6 5 6 7 9 7 15 18 18 18 18 20 11 9 10 11 11 11 11 12
6 7 4 3 5 5 7 5 4 5 4 4 4 4 4 5 6 7 7 5 5 4 3 3 2 1 1 0 1 1 1 1 2 2 2 3 3 4 4 4 4 4 6 6 5 7 9 7 11 17 19 19 20 16 8 9 9 10 11 12 11 11
3 3 6 5 5 5 4 4 5 5 5 5 4 5 6 6 7 6 5 6 4 4 4 3 3 2 1 0 0 0 0 0 1 1 1 3 5 6 4 5 6 4 4 6 7 6 10 9 11 18 19 19 19 16 10 9 7 10 11 13 12 12
5 4 3 3 4 4 4 5 6 6 6 5 5 5 6 7 6 7 7 6 5 4 4 3 2 2 2 1 0 0 0 1 1 1 2 3 3 5 4 5 6 6 4 4 7 11 12 11 12 16 19 20 19 15 9 8 8 9 11 11 12 12
4 3 4 6 8 5 6 6 7 6 6 6 6 6 8 8 8 5 5 5 5 4 3 3 2 2 1 1 0 0 0 1 1 2 2 3 3 5 5 5 6 8 8 5 6 7 7 10 10 10 20 19 19 19 12 8 7 9 12 13 12 12
7 9 10 9 5 7 6 7 7 7 6 7 7 10 9 6 6 6 6 5 4 3 3 2 2 1 1 1 0 0 0 1 2 2 3 4 4 4 6 6 6 8 9 6 6 7 7 7 11 11 19 20 20 21 17 9 9 10 11 12 12 10
5 4 4 4 6 7 7 7 8 6 7 7 10 8 5 7 7 6 6 4 4 3 2 1 1 1 1 1 1 2 2 1 1 2 3 3 4 6 7 6 6 7 9 7 6 6 8 8 14 12 16 20 21 20 22 12 11 13 12 13 11 10
7 9 8 4 4 5 5 7 7 7 6 10 7 5 6 6 6 5 4 4 3 2 1 0 1 1 1 1 1 1 3 2 3 3 3 4 5 6 8 6 6 7 9 9 6 5 7 7 9 16 15 19 21 22 21 22 18 23 15 12 13 11
7 7 5 4 4 4 5 9 8 7 8 8 5 6 5 5 4 4 4 3 2 1 0 0 0 0 0 0 1 1 2 3 3 3 3 4 4 6 8 6 5 7 8 10 10 6 5 7 8 12 17 17 21 21 22 23 24 24 16 14 12 11
11 7 5 4 5 5 5 5 8 7 8 5 7 6 7 6 5 4 4 3 2 1 0 0 0 1 1 1 0 1 2 3 2 4 2 3 4 5 7 7 5 7 8 9 10 10 7 7 8 7 11 18 20 22 24 24 25 24 25 17 13 13
5 5 7 5 5 5 4 5 6 10 6 6 6 6 6 6 5 4 4 2 1 1 0 0 1 1 1 1 1 2 2 3 3 4 4 4 5 5 6 7 6 7 7 9 9 9 9 8 8 9 9 10 14 17 22 25 24 24 24 24 20 27
8 9 9 10 7 6 5 5 3 4 6 8 7 6 6 5 4 4 3 3 2 1 0 0 1 2 2 1 2 2 2 3 3 3 4 4 6 6 5 7 7 7 7 9 9 9 9 9 9 10 9 8 9 10 12 13 13 18 21 15 11 15
10 10 9 11 9 7 6 5 5 5 7 6 7 6 6 5 4 5 4 3 2 1 1 1 1 2 2 3 2 3 3 3 3 4 6 5 6 6 7 6 7 8 8 9 9 9 11 11 10 8 9 10 10 10 9 10 11 10 9 11 12 12
11 11 11 11 7 8 7 6 5 6 8 8 7 8 7 6 4 4 3 2 2 2 1 1 2 2 3 3 3 4 4 4 4 6 7 6 5 7 8 9 9 9 10 9 8 8 8 6 9 8 13 15 20 17 14 11 10 11 11 15 24 18
11 10 11 9 7 8 8 7 7 6 6 7 7 7 7 6 5 4 4 3 3 2 1 2 2 2 3 4 4 5 5 7 12 9 8 7 10 17 19 17 10 9 9 9 8 7 9 10 10 20 25 24 24 24 25 24 25 24 20 23 27 18
8 7 8 8 7 8 8 8 7 7 6 7 7 7 6 6 6 4 4 3 4 4 3 3 3 3 4 4 4 3 5 6 5 12 17 15 15 16 17 19 22 23 22 14 10 10 18 21 23 23 22 23 23 24 24 24 23 25 24 24 17 10
8 11 13 7 8 9 8 8 7 8 7 6 7 6 7 7 6 6 6 5 4 4 4 4 4 3 4 4 3 4 4 5 8 7 8 12 12 13 16 18 19 20 19 17 14 11 9 15 19 21 21 22 23 22 22 22 22 22 22 21 16 7
10 6 5 7 8 8 8 9 8 7 7 7 7 7 7 7 7 6 5 5 4 4 5 4 4 4 4 4 4 4 3 4 5 9 9 6 11 15 14 15 16 14 13 14 16 17 17 16 17 20 20 20 19 19 18 20 20 20 19 15 8 5
5 6 7 7 9 9 8 8 7 7 7 7 7 7 8 7 7 6 5 6 6 6 5 5 4 5 4 4 4 4 4 5 5 5 6 9 8 9 12 10 8 10 13 13 16 18 16 16 17 18 18 17 17 17 17 17 14 17 14 11 6 6
6 6 7 8 8 7 8 7 6 6 6 7 7 7 6 6 7 5 6 7 6 5 5 5 4 5 4 4 4 4 5 5 5 5 5 4 6 7 7 9 12 11 10 11 12 13 15 16 17 16 15 16 15 16 17 16 10 11 9 7 3 4
6 5 6 6 6 6 6 5 4 5 5 6 7 7 7 7 7 6 5 6 6 6 5 5 5 5 5 5 5 5 5 5 5 6 4 5 5 6 7 8 7 8 13 17 13 13 15 16 16 15 14 14 15 15 15 8 8 8 7 8 7 6
Wind_Direction
183 178 182 190 188 181 176 170 163 145 125 117 110 111 109 111 104 100 90 90 92 91 88 91 83 81 88 92 90 86 77 67 74 73 72 69 46 25 19 16 15 15 14 19 9 6 6 3 0 359 353 352 348 340 336 323 332 331 325 324 330 320
182 179 181 184 186 186 187 169 149 131 131 116 105 96 101 100 101 106 99 96 98 94 90 73 80 77 80 66 67 56 54 43 38 27 25 14 11 17 12 14 8 5 6 4 2 357 359 3 358 355 353 352 353 344 342 335 337 331 325 319 317 308
184 186 184 186 191 189 174 172 165 155 143 127 130 123 114 106 117 111 117 107 98 94 91 85 79 81 83 80 82 92 78 50 45 32 14 7 11 5 3 7 356 356 357 352 354 355 350 356 349 350 348 344 340 339 331 328 333 329 324 323 323 326
187 188 185 189 180 188 184 184 146 146 151 141 125 114 122 125 122 123 124 110 117 123 130 138 130 119 92 87 64 68 56 36 37 21 14 24 326 358 340 347 341 350 347 353 345 347 348 342 343 336 346 339 335 333 331 329 326 321 316 320 316 323
188 188 189 192 192 188 185 172 174 173 160 140 134 132 158 147 152 140 140 143 144 154 156 133 118 77 71 90 102 96 172 186 207 189 135 161 313 325 351 341 350 345 350 348 339 340 339 334 326 325 328 322 319 317 318 318 317 314 315 316 312 314
183 186 199 197 193 190 186 183 183 175 160 156 142 156 167 167 155 156 150 148 153 144 132 149 130 127 152 159 188 172 190 185 175 128 50 23 2 359 340 346 336 346 342 337 332 331 327 322 316 316 313 308 308 306 306 309 308 305 301 299 302 306
191 203 201 195 191 186 185 186 185 177 182 164 168 187 186 180 168 160 167 157 165 166 165 182 175 170 183 186 186 177 156 79 56 38 35 43 4 339 340 340 337 342 337 338 328 325 322 314 312 311 306 300 294 292 295 298 298 297 295 293 293 294
201 205 204 195 191 188 188 189 185 185 185 190 184 185 192 200 176 180 168 176 175 189 192 198 187 192 192 189 181 167 138 105 79 70 17 47 355 351 349 360 357 347 339 333 326 321 316 318 316 310 307 302 303 299 295 293 292 292 292 293 292 291
210 210 200 196 193 193 191 186 189 189 188 196 198 196 191 194 181 186 187 187 189 189 200 194 196 194 192 184 174 159 139 117 105 66 38 7 8 5 0 359 358 349 348 332 337 333 332 327 320 316 309 311 307 305 303 305 302 298 298 297 298 298
209 203 202 199 202 195 192 193 191 188 188 197 199 196 195 193 185 191 196 191 197 198 197 195 197 192 189 173 160 145 130 102 70 47 21 15 8 11 360 353 348 340 341 331 340 333 332 324 323 317 316 306 307 307 308 309 308 307 304 300 297 295
208 204 201 201 193 195 197 192 194 197 202 202 196 188 201 191 184 197 199 195 200 203 190 191 194 185 172 164 138 107 82 68 59 38 21 17 11 5 345 346 337 331 334 338 336 334 332 330 322 331 316 315 313 311 307 310 305 302 300 299 298 297
211 205 199 196 195 198 194 194 196 198 198 203 199 199 206 170 194 196 198 200 205 192 183 185 179 168 155 124 104 93 70 63 42 28 22 20 7 343 336 333 324 326 332 331 328 331 327 319 324 311 315 318 316 313 310 304 299 298 299 301 302 300
215 211 207 203 195 195 193 196 199 198 201 201 202 207 201 177 195 200 194 206 196 180 175 173 170 140 129 120 97 92 63 45 34 35 36 13 351 343 340 327 330 341 328 325 324 323 321 318 312 313 315 316 316 315 310 308 306 306 305 302 302 304
213 209 209 207 201 194 194 197 198 192 203 205 208 208 180 185 199 199 202 196 177 174 174 170 150 135 134 116 94 98 89 85 54 50 36 7 360 344 331 334 337 326 325 321 320 316 314 313 313 314 313 314 315 314 310 306 303 304 302 302 303 303
212 212 213 204 198 198 206 196 187 201 206 203 214 180 172 193 195 195 192 181 172 173 166 150 145 141 124 101 108 82 40 43 27 23 10 7 345 328 342 334 331 324 327 323 321 319 315 309 314 311 311 312 313 313 312 303 302 300 300 301 301 301
216 214 209 205 206 206 205 194 200 209 206 200 165 170 190 180 191 183 183 171 173 166 153 140 131 125 120 105 69 40 31 35 23 9 358 346 341 346 332 333 331 328 328 327 319 313 312 307 308 309 310 313 312 312 311 303 303 299 297 299 298 297
205 199 205 211 208 205 187 210 217 225 199 179 183 186 176 188 178 182 173 170 160 146 140 131 126 120 124 73 55 30 35 29 10 8 4 359 341 340 334 332 329 323 320 316 312 306 304 303 306 308 310 311 312 312 315 309 305 297 292 290 290 292
203 200 215 209 187 202 192 215 201 189 217 163 185 181 184 175 178 176 162 162 159 149 144 133 124 123 96 67 29 37 14 22 12 0 348 338 323 303 306 301 299 306 309 306 305 302 299 298 306 306 308 309 313 315 315 309 298 294 290 289 290 291
194 208 187 170 192 192 212 204 167 188 175 173 184 161 169 164 176 178 170 160 155 146 139 129 130 132 111 93 40 26 357 8 356 357 340 329 313 311 308 296 295 294 298 300 298 299 295 295 301 303 307 311 313 315 299 300 297 293 292 288 286 287
196 186 179 181 186 201 185 168 164 159 169 176 160 161 171 176 185 170 161 158 155 149 139 134 136 140 153 161 161 175 324 36 341 305 336 323 314 309 300 301 299 285 285 292 294 291 294 294 300 305 307 310 310 308 303 299 284 285 288 289 285 286
180 174 158 155 198 211 165 155 150 152 175 172 171 170 172 188 175 169 164 158 149 139 141 140 142 153 166 172 161 143 351 324 311 303 304 283 286 288 299 300 299 295 285 277 284 295 297 294 298 302 304 305 306 305 291 286 280 277 284 290 290 282
118 139 171 193 213 164 161 151 152 164 170 175 162 171 192 191 178 160 140 135 138 140 140 148 151 167 155 148 114 143 238 297 335 316 312 305 293 296 302 296 295 295 293 289 286 285 283 289 289 294 300 302 302 302 299 287 282 285 289 286 278 281
188 189 196 209 178 159 160 154 149 175 175 165 171 200 195 166 146 141 140 137 137 143 148 159 158 150 140 118 131 64 17 344 322 324 314 306 303 296 297 295 292 291 290 290 283 280 279 274 287 290 297 299 301 301 302 288 278 279 280 280 277 269
217 232 247 224 167 169 165 161 171 173 169 168 201 198 139 143 142 137 140 143 148 153 156 158 141 109 108 61 49 13 348 325 334 309 303 294 300 299 293 295 293 293 292 290 281 275 276 276 281 289 292 295 298 299 299 296 285 288 286 286 281 287
210 217 216 185 174 170 178 168 173 176 170 197 199 137 144 134 138 138 140 142 147 156 143 124 93 16 72 22 17 10 328 323 316 301 299 300 299 294 295 296 298 297 297 297 286 273 271 271 268 279 284 290 296 299 300 297 296 297 295 290 288 281
213 216 202 175 181 183 180 178 178 177 185 204 127 140 128 134 131 134 136 147 149 139 127 116 67 57 42 21 1 6 313 305 297 291 284 288 289 296 296 294 299 298 296 301 301 289 273 268 265 268 279 287 294 300 300 301 300 300 294 288 282 285
212 201 192 192 186 196 188 190 176 173 199 173 143 147 145 139 139 133 148 157 160 156 176 30 344 299 313 298 102 309 291 295 295 304 277 279 289 283 289 292 294 290 293 295 294 298 294 277 267 267 271 289 299 304 304 303 301 299 299 295 287 282
196 180 200 208 196 194 190 191 171 184 197 144 153 144 141 138 136 148 168 174 173 210 116 347 324 324 299 293 252 230 244 255 283 282 292 279 275 273 277 288 290 286 286 283 287 290 292 290 289 291 287 282 296 300 299 298 299 299 298 295 293 296
190 202 200 206 201 191 191 180 182 166 137 154 143 140 134 137 148 158 165 182 203 205 160 174 304 320 311 280 254 242 245 249 257 264 275 268 272 276 270 275 281 284 279 279 282 286 291 293 298 296 292 293 295 290 286 286 279 283 289 291 283 288
204 209 202 211 196 185 179 172 155 142 137 137 138 133 131 143 162 174 189 201 192 214 183 190 268 271 285 277 263 271 272 255 237 253 257 258 259 270 277 269 268 268 272 277 282 282 286 288 288 287 299 298 290 288 292 291 294 297 298 293 288 283
207 212 202 212 177 177 176 169 150 145 144 144 143 144 147 165 170 165 179 187 166 217 216 208 230 242 256 273 270 247 233 248 258 260 265 239 221 233 253 268 259 255 261 266 260 266 265 272 298 299 303 303 309 310 308 307 306 301 291 297 307 312
209 207 206 204 170 174 173 164 159 159 148 146 150 150 157 162 161 168 200 189 189 215 222 240 242 240 245 252 267 279 278 247 257 254 250 257 254 257 258 255 246 244 240 246 258 276 291 297 299 308 310 311 310 311 309 306 306 309 312 316 322 326
208 205 207 192 167 172 169 165 162 159 158 153 157 158 158 154 165 185 197 190 206 207 211 216 236 239 237 245 253 262 278 296 278 279 282 282 286 284 281 280 280 284 288 290 289 292 297 302 305 307 309 311 312 310 312 316 319 318 323 329 327 329
202 204 207 173 165 168 167 164 170 167 166 159 155 155 155 165 171 191 202 195 203 208 209 209 218 233 242 251 249 256 277 288 300 290 284 296 301 299 296 290 290 291 292 292 297 306 307 304 305 309 312 313 313 320 326 324 324 331 332 330 339 337
205 190 156 160 165 163 169 168 177 171 165 163 160 156 163 175 181 191 194 194 197 201 207 213 215 227 226 245 250 259 252 271 283 302 311 302 304 306 300 296 296 300 305 310 308 306 305 308 312 313 313 316 328 333 331 331 339 338 336 345 350 327
162 164 162 163 167 165 167 176 178 177 171 163 163 166 177 181 189 191 189 193 198 197 208 210 217 220 231 225 231 234 244 247 258 270 282 307 322 324 321 311 290 295 306 306 305 308 311 313 315 316 318 331 339 337 336 345 340 331 344 353 334 323
150 155 165 160 159 162 173 186 184 178 164 163 161 168 175 182 187 191 203 200 194 197 206 211 217 217 219 219 227 232 240 251 245 249 265 280 296 306 300 306 310 310 304 307 309 309 314 318 319 319 329 341 342 340 346 347 337 339 336 340 314 294
149 153 151 154 156 162 176 198 177 171 167 161 162 167 181 186 192 194 199 208 207 206 210 212 216 216 216 219 226 225 239 239 242 246 254 268 275 276 288 289 282 290 306 310 311 316 319 321 324 324 338 345 343 344 355 343 329 324 320 319 317 312